EW5967 Weather Reports


Display with metric or nautical units.
time (UTC)temp
F
wind
direction
speed
MPH
gust
MPH
rain 1hr
in
rain 24hr
in
rain mn
in
humidity
%
barometer
mb
20260905032046 82 232 2.0 9.0 0.00 0.00 0.00 17 1004.6
20260905031546 83 236 2.0 9.0 0.00 0.00 0.00 17 1004.6
20260905031046 83 252 4.0 12.0 0.00 0.00 0.00 17 1004.5
20260905030546 83 235 3.0 12.0 0.00 0.00 0.00 17 1004.4
20260905030052 83 236 4.0 11.0 0.00 0.00 0.00 17 1004.4
20260905025546 83 221 4.0 11.0 0.00 0.00 0.00 17 1004.3
20260905025148 83 226 5.0 10.0 0.00 0.00 0.00 17 1004.3
20260905024550 83 234 2.0 9.0 0.00 0.00 0.00 17 1004.3
20260905024045 83 229 3.0 9.0 0.00 0.00 0.00 17 1004.3
20260905023546 83 200 4.0 9.0 0.00 0.00 0.00 17 1004.2
20260905023045 83 207 3.0 10.0 0.00 0.00 0.00 17 1004.3
20260905022544 83 209 3.0 9.0 0.00 0.00 0.00 17 1004.3
20260905022044 84 229 3.0 10.0 0.00 0.00 0.00 17 1004.2
20260905021545 84 218 4.0 10.0 0.00 0.00 0.00 17 1004.2
20260905021044 84 216 2.0 13.0 0.00 0.00 0.00 17 1004.2
20260905020544 84 205 3.0 9.0 0.00 0.00 0.00 16 1004.3
20260905020044 84 227 4.0 9.0 0.00 0.00 0.00 16 1004.3
20260905015543 84 238 3.0 8.0 0.00 0.00 0.00 16 1004.3
20260905015047 85 233 3.0 11.0 0.00 0.00 0.00 16 1004.4
20260905014553 85 210 4.0 11.0 0.00 0.00 0.00 16 1004.4
20260905014043 85 229 3.0 9.0 0.00 0.00 0.00 16 1004.5
20260905013542 85 221 4.0 9.0 0.00 0.00 0.00 15 1004.4
20260905013042 86 234 3.0 9.0 0.00 0.00 0.00 15 1004.4
20260905012543 86 211 4.0 10.0 0.00 0.00 0.00 15 1004.4
20260905012043 86 252 4.0 10.0 0.00 0.00 0.00 14 1004.4
20260905011542 87 220 3.0 9.0 0.00 0.00 0.00 14 1004.4
20260905011043 87 238 3.0 9.0 0.00 0.00 0.00 14 1004.4
20260905010545 87 226 3.0 7.0 0.00 0.00 0.00 14 1004.4
20260905010045 87 242 3.0 8.0 0.00 0.00 0.00 14 1004.4
20260905005541 88 246 3.0 10.0 0.00 0.00 0.00 14 1004.3
20260905005040 88 230 4.0 10.0 0.00 0.00 0.00 14 1004.3
20260905004540 88 248 2.0 10.0 0.00 0.00 0.00 14 1004.4
20260905004040 88 193 5.0 12.0 0.00 0.00 0.00 14 1004.4
20260905003540 89 209 4.0 10.0 0.00 0.00 0.00 13 1004.3
20260905003039 89 236 3.0 9.0 0.00 0.00 0.00 14 1004.2
20260905002539 89 248 3.0 8.0 0.00 0.00 0.00 13 1004.3
20260905002039 89 223 3.0 10.0 0.00 0.00 0.00 13 1004.2
20260905001540 89 209 5.0 13.0 0.00 0.00 0.00 13 1004.3
20260905001038 89 267 4.0 13.0 0.00 0.00 0.00 13 1004.3
20260905000541 89 245 5.0 15.0 0.00 0.00 0.00 13 1004.3
20260905000039 89 213 4.0 15.0 0.00 0.00 0.00 13 1004.3
20260904235537 89 244 4.0 11.0 0.00 0.00 0.00 13 1004.2
20260904235038 90 210 4.0 11.0 0.00 0.00 0.00 13 1004.3
20260904234540 90 241 3.0 11.0 0.00 0.00 0.00 13 1004.2
20260904234038 90 221 5.0 11.0 0.00 0.00 0.00 13 1004.3
20260904233535 90 214 4.0 9.0 0.00 0.00 0.00 13 1004.2
20260904233034 90 244 2.0 10.0 0.00 0.00 0.00 12 1004.2
20260904232534 90 281 3.0 10.0 0.00 0.00 0.00 12 1004.2
20260904232032 90 252 4.0 10.0 0.00 0.00 0.00 12 1004.3
20260904231532 90 194 4.0 10.0 0.00 0.00 0.00 12 1004.3
20260904231035 89 198 5.0 15.0 0.00 0.00 0.00 13 1004.3
20260904230532 90 157 2.0 11.0 0.00 0.00 0.00 13 1004.3
20260904230033 90 234 3.0 16.0 0.00 0.00 0.00 13 1004.3
20260904225530 89 215 5.0 16.0 0.00 0.00 0.00 14 1004.3
20260904225031 90 139 7.0 11.0 0.00 0.00 0.00 13 1004.4
20260904224530 90 159 3.0 10.0 0.00 0.00 0.00 13 1004.5
20260904224029 90 202 4.0 15.0 0.00 0.00 0.00 13 1004.6
20260904223529 89 234 3.0 16.0 0.00 0.00 0.00 14 1004.7
20260904223033 89 126 8.0 16.0 0.00 0.00 0.00 14 1004.6
20260904222527 89 144 7.0 17.0 0.00 0.00 0.00 14 1004.6
20260904222028 89 175 6.0 14.0 0.00 0.00 0.00 14 1004.7
20260904221541 89 151 4.0 10.0 0.00 0.00 0.00 14 1004.7
20260904221024 89 167 6.0 15.0 0.00 0.00 0.00 14 1004.7
20260904220523 89 205 7.0 15.0 0.00 0.00 0.00 14 1004.7
20260904220022 89 209 8.0 13.0 0.00 0.00 0.00 14 1004.8
20260904215522 89 186 6.0 19.0 0.00 0.00 0.00 14 1004.9
20260904215021 88 194 9.0 19.0 0.00 0.00 0.00 15 1004.9
20260904214521 88 156 6.0 14.0 0.00 0.00 0.00 15 1004.9
20260904214022 88 166 7.0 16.0 0.00 0.00 0.00 15 1005.0
20260904213522 88 111 9.0 16.0 0.00 0.00 0.00 15 1005.0
20260904213019 89 143 7.0 15.0 0.00 0.00 0.00 15 1005.2
20260904212519 89 194 9.0 15.0 0.00 0.00 0.00 15 1005.1
20260904212018 88 203 6.0 18.0 0.00 0.00 0.00 14 1005.0
20260904211517 89 130 8.0 18.0 0.00 0.00 0.00 15 1005.1
20260904211016 88 180 6.0 14.0 0.00 0.00 0.00 15 1005.1
20260904210517 88 193 2.0 18.0 0.00 0.00 0.00 15 1005.2
20260904210016 88 200 6.0 18.0 0.00 0.00 0.00 15 1005.3
20260904205516 87 142 8.0 18.0 0.00 0.00 0.00 15 1005.2
20260904205015 87 200 9.0 22.0 0.00 0.00 0.00 15 1005.4
20260904204514 88 198 10.0 22.0 0.00 0.00 0.00 14 1005.3
20260904204015 88 195 7.0 17.0 0.00 0.00 0.00 15 1005.4
20260904203514 88 180 5.0 17.0 0.00 0.00 0.00 16 1005.3
20260904203019 87 175 8.0 17.0 0.00 0.00 0.00 16 1005.3
20260904202511 86 151 7.0 18.0 0.00 0.00 0.00 17 1005.2
20260904202012 86 130 7.0 18.0 0.00 0.00 0.00 17 1005.3
20260904201518 86 134 10.0 17.0 0.00 0.00 0.00 16 1005.3
20260904201011 86 159 7.0 18.0 0.00 0.00 0.00 18 1005.4
20260904200511 86 209 10.0 18.0 0.00 0.00 0.00 18 1005.5
20260904200011 86 161 6.0 17.0 0.00 0.00 0.00 17 1005.6
20260904195510 86 165 7.0 21.0 0.00 0.00 0.00 18 1005.5
20260904195009 85 180 9.0 21.0 0.00 0.00 0.00 18 1005.6
20260904194510 86 182 9.0 18.0 0.00 0.00 0.00 18 1005.6
20260904194011 85 182 8.0 17.0 0.00 0.00 0.00 17 1005.6
20260904193509 85 169 6.0 18.0 0.00 0.00 0.00 18 1005.8
20260904193008 86 136 8.0 16.0 0.00 0.00 0.00 18 1005.8
20260904192506 85 129 8.0 18.0 0.00 0.00 0.00 18 1005.9
20260904192006 85 179 10.0 19.0 0.00 0.00 0.00 18 1005.9
20260904191506 85 165 8.0 20.0 0.00 0.00 0.00 18 1006.0
20260904191008 85 188 8.0 19.0 0.00 0.00 0.00 18 1005.9
20260904190506 85 186 6.0 19.0 0.00 0.00 0.00 19 1006.0
20260904190007 85 175 5.0 14.0 0.00 0.00 0.00 19 1006.2
20260904185504 84 202 7.0 18.0 0.00 0.00 0.00 18 1006.2
20260904185004 84 163 10.0 18.0 0.00 0.00 0.00 19 1006.3
20260904184504 84 175 7.0 17.0 0.00 0.00 0.00 18 1006.3
20260904184004 84 173 9.0 17.0 0.00 0.00 0.00 19 1006.3
20260904183504 84 124 7.0 17.0 0.00 0.00 0.00 18 1006.4
20260904183008 84 173 9.0 13.0 0.00 0.00 0.00 18 1006.4
20260904182502 84 198 6.0 18.0 0.00 0.00 0.00 19 1006.4
20260904182002 84 180 7.0 16.0 0.00 0.00 0.00 19 1006.4
20260904181501 84 188 7.0 17.0 0.00 0.00 0.00 19 1006.3
20260904181001 84 153 9.0 17.0 0.00 0.00 0.00 18 1006.3
20260904180501 84 158 8.0 15.0 0.00 0.00 0.00 18 1006.3
20260904180101 84 205 7.0 15.0 0.00 0.00 0.00 18 1006.2
20260904180000 84 183 5.0 15.0 0.00 0.00 0.00 18 1006.3
20260904175559 84 144 7.0 15.0 0.00 0.00 0.00 18 1006.2
20260904175100 84 183 5.0 16.0 0.00 0.00 0.00 18 1006.3
20260904174559 84 175 7.0 16.0 0.00 0.00 0.00 18 1006.2
20260904174057 83 191 6.0 17.0 0.00 0.00 0.00 19 1006.2
20260904173558 83 136 9.0 17.0 0.00 0.00 0.00 19 1006.2
20260904173106 83 165 9.0 17.0 0.00 0.00 0.00 18 1006.2
20260904172557 83 162 5.0 19.0 0.00 0.00 0.00 17 1006.2
20260904172057 83 141 5.0 17.0 0.00 0.00 0.00 20 1006.1
20260904171556 83 169 6.0 14.0 0.00 0.00 0.00 20 1006.2
20260904171054 83 152 4.0 11.0 0.00 0.00 0.00 17 1006.1
20260904170553 82 194 2.0 17.0 0.00 0.00 0.00 18 1006.1
20260904170052 82 140 10.0 17.0 0.00 0.00 0.00 21 1006.0
20260904165552 81 158 4.0 12.0 0.00 0.00 0.00 22 1006.0
20260904165051 81 153 6.0 14.0 0.00 0.00 0.00 22 1006.0
20260904164552 80 138 5.0 14.0 0.00 0.00 0.00 23 1005.9
20260904164052 80 144 5.0 13.0 0.00 0.00 0.00 23 1005.8
20260904163549 80 158 7.0 14.0 0.00 0.00 0.00 23 1005.8
20260904163047 80 120 8.0 14.0 0.00 0.00 0.00 24 1005.7
20260904162546 79 136 6.0 12.0 0.00 0.00 0.00 25 1005.8
20260904162044 79 126 5.0 15.0 0.00 0.00 0.00 26 1005.7
20260904161547 79 130 7.0 15.0 0.00 0.00 0.00 26 1005.7
20260904161044 78 140 4.0 11.0 0.00 0.00 0.00 27 1005.7
20260904160545 77 67 3.0 12.0 0.00 0.00 0.00 28 1005.7
20260904160043 77 148 6.0 12.0 0.00 0.00 0.00 28 1005.7
20260904155542 77 109 5.0 12.0 0.00 0.00 0.00 29 1005.7
20260904155042 76 88 5.0 12.0 0.00 0.00 0.00 29 1005.8
20260904154543 76 101 4.0 12.0 0.00 0.00 0.00 30 1005.8
20260904154042 76 111 7.0 12.0 0.00 0.00 0.00 30 1005.9
20260904153543 75 111 4.0 10.0 0.00 0.00 0.00 30 1005.9
20260904153044 75 97 4.0 10.0 0.00 0.00 0.00 31 1005.9
20260904152540 75 137 5.0 10.0 0.00 0.00 0.00 31 1005.8
20260904152040 75 94 2.0 8.0 0.00 0.00 0.00 32 1005.8
20260904151544 75 128 1.0 7.0 0.00 0.00 0.00 32 1005.8
20260904151040 75 160 1.0 6.0 0.00 0.00 0.00 32 1005.8
20260904150543 74 134 0.0 2.0 0.00 0.00 0.00 32 1005.7
20260904150040 74 134 0.0 3.0 0.00 0.00 0.00 32 1005.8
20260904145540 73 134 0.0 4.0 0.00 0.00 0.00 33 1005.7
20260904145040 73 147 1.0 5.0 0.00 0.00 0.00 34 1005.6
20260904144539 73 176 1.0 4.0 0.00 0.00 0.00 34 1005.7
20260904144040 73 190 0.0 4.0 0.00 0.00 0.00 34 1005.6
20260904143541 73 194 0.0 4.0 0.00 0.00 0.00 34 1005.5
20260904143037 73 194 0.0 1.0 0.00 0.00 0.00 34 1005.5
20260904142538 72 194 0.0 1.0 0.00 0.00 0.00 34 1005.4
20260904142036 72 194 0.0 1.0 0.00 0.00 0.00 35 1005.4
20260904141558 71 194 0.0 1.0 0.00 0.00 0.00 35 1005.4
20260904141035 71 194 0.0 1.0 0.00 0.00 0.00 35 1005.3
20260904140535 71 194 0.0 0.0 0.00 0.00 0.00 36 1005.4
20260904140034 71 194 0.0 1.0 0.00 0.00 0.00 36 1005.2
20260904135536 71 194 0.0 1.0 0.00 0.00 0.00 36 1005.2
20260904135034 70 194 0.0 0.0 0.00 0.00 0.00 37 1005.2
20260904134533 70 194 0.0 0.0 0.00 0.00 0.00 36 1005.1
20260904134032 69 194 0.0 2.0 0.00 0.00 0.00 37 1005.0
20260904133531 69 194 0.0 2.0 0.00 0.00 0.00 37 1005.0
20260904133031 69 194 0.0 1.0 0.00 0.00 0.00 37 1004.9
20260904132530 69 194 0.0 1.0 0.00 0.00 0.00 37 1004.8
20260904132029 69 194 0.0 1.0 0.00 0.00 0.00 37 1004.8
20260904131528 69 194 0.0 2.0 0.00 0.00 0.00 36 1004.7
20260904131028 69 194 0.0 2.0 0.00 0.00 0.00 36 1004.7
20260904130526 70 194 0.0 3.0 0.00 0.00 0.00 36 1004.6
20260904130026 70 194 0.0 3.0 0.00 0.00 0.00 36 1004.6
20260904125526 70 201 0.0 2.0 0.00 0.00 0.00 35 1004.5
20260904125025 70 201 0.0 4.0 0.00 0.00 0.00 35 1004.3
20260904124524 70 206 2.0 4.0 0.00 0.00 0.00 34 1004.3
20260904124026 69 140 0.0 1.0 0.00 0.00 0.00 36 1004.2
20260904123526 69 140 0.0 1.0 0.00 0.00 0.00 36 1004.1
20260904123022 69 140 0.0 2.0 0.00 0.00 0.00 36 1004.1
20260904122520 69 140 0.0 2.0 0.00 0.00 0.00 36 1004.0
20260904122020 70 141 0.0 3.0 0.00 0.00 0.00 35 1003.9
20260904121528 70 141 0.0 3.0 0.00 0.00 0.00 35 1003.9
20260904121020 70 141 0.0 1.0 0.00 0.00 0.00 35 1004.0
20260904120518 70 141 0.0 3.0 0.00 0.00 0.00 34 1004.0
20260904120016 71 141 0.0 3.0 0.00 0.00 0.00 34 1003.9
20260904115516 71 144 0.0 3.0 0.00 0.00 0.00 33 1003.9
20260904115015 71 145 0.0 5.0 0.00 0.00 0.00 32 1003.8
20260904114515 71 132 1.0 5.0 0.00 0.00 0.00 32 1003.8
20260904114015 71 196 0.0 0.0 0.00 0.00 0.00 33 1003.8
20260904113515 71 196 0.0 1.0 0.00 0.00 0.00 33 1003.7
20260904113028 71 196 0.0 2.0 0.00 0.00 0.00 33 1003.8
20260904112515 71 196 0.0 1.0 0.00 0.00 0.00 32 1003.7
20260904112010 72 196 0.0 1.0 0.00 0.00 0.00 31 1003.7
20260904111520 72 196 0.0 2.0 0.00 0.00 0.00 31 1003.7
20260904111010 72 196 0.0 2.0 0.00 0.00 0.00 30 1003.6
20260904110507 73 196 0.0 2.0 0.00 0.00 0.00 30 1003.6
20260904110006 74 198 0.0 0.0 0.00 0.00 0.00 29 1003.6
20260904105503 74 198 0.0 1.0 0.00 0.00 0.00 27 1003.5
20260904105003 75 198 0.0 5.0 0.00 0.00 0.00 27 1003.5
20260904104503 75 182 0.0 5.0 0.00 0.00 0.00 27 1003.5
20260904104001 75 194 3.0 5.0 0.00 0.00 0.00 27 1003.4
20260904103501 75 202 1.0 5.0 0.00 0.00 0.00 27 1003.3
20260904103105 75 206 1.0 4.0 0.00 0.00 0.00 27 1003.3
20260904102600 74 207 1.0 4.0 0.00 0.00 0.00 27 1003.2
20260904102100 75 206 0.0 4.0 0.00 0.00 0.00 27 1003.2
20260904101559 75 202 0.0 5.0 0.00 0.00 0.00 27 1003.2
20260904101057 76 196 1.0 6.0 0.00 0.00 0.00 26 1003.1
20260904100557 76 197 1.0 7.0 0.00 0.00 0.00 26 1003.2
20260904100105 76 204 2.0 7.0 0.00 0.00 0.00 26 1003.2
20260904095556 76 190 2.0 7.0 0.00 0.00 0.00 26 1003.2
20260904095055 76 207 2.0 6.0 0.00 0.00 0.00 26 1003.2
20260904094556 76 207 1.0 6.0 0.00 0.00 0.00 26 1003.1
20260904094057 76 212 1.0 7.0 0.00 0.00 0.00 26 1003.0
20260904093558 76 198 2.0 7.0 0.00 0.00 0.00 26 1003.0
20260904093056 76 191 2.0 6.0 0.00 0.00 0.00 25 1003.0
20260904092552 76 221 2.0 7.0 0.00 0.00 0.00 24 1003.0
20260904092051 77 229 3.0 8.0 0.00 0.00 0.00 24 1003.0
20260904091551 77 250 3.0 9.0 0.00 0.00 0.00 24 1003.0
20260904091050 77 244 4.0 10.0 0.00 0.00 0.00 24 1003.0
20260904090549 77 245 4.0 10.0 0.00 0.00 0.00 24 1003.0
20260904090053 77 223 4.0 10.0 0.00 0.00 0.00 24 1002.9
20260904085550 77 237 4.0 10.0 0.00 0.00 0.00 24 1003.0
20260904085053 77 221 3.0 10.0 0.00 0.00 0.00 24 1003.1
20260904084549 77 232 4.0 10.0 0.00 0.00 0.00 24 1003.1
20260904084048 77 252 4.0 9.0 0.00 0.00 0.00 24 1003.1
20260904083548 77 229 4.0 9.0 0.00 0.00 0.00 24 1003.1
20260904083048 77 217 4.0 7.0 0.00 0.00 0.00 24 1003.1
20260904082549 77 221 4.0 8.0 0.00 0.00 0.00 24 1003.2
20260904082046 77 223 3.0 8.0 0.00 0.00 0.00 24 1003.2
20260904081549 77 227 4.0 8.0 0.00 0.00 0.00 24 1003.2
20260904081047 77 238 4.0 9.0 0.00 0.00 0.00 23 1003.2
20260904080546 77 223 1.0 8.0 0.00 0.00 0.00 24 1003.3
20260904080051 77 208 3.0 9.0 0.00 0.00 0.00 23 1003.3
20260904075544 77 211 2.0 10.0 0.00 0.00 0.00 23 1003.2
20260904075043 78 225 3.0 10.0 0.00 0.00 0.00 22 1003.3
20260904074543 77 209 4.0 9.0 0.00 0.00 0.00 23 1003.2
20260904074043 77 246 4.0 9.0 0.00 0.00 0.00 23 1003.2
20260904073542 77 200 5.0 10.0 0.00 0.00 0.00 23 1003.2
20260904073048 78 215 5.0 13.0 0.00 0.00 0.00 22 1003.1
20260904072540 78 232 4.0 15.0 0.00 0.00 0.00 22 1003.0
20260904072039 78 213 6.0 13.0 0.00 0.00 0.00 22 1003.0
20260904071538 78 224 4.0 9.0 0.00 0.00 0.00 21 1003.1
20260904071041 78 221 3.0 9.0 0.00 0.00 0.00 21 1003.1
20260904070540 78 223 2.0 8.0 0.00 0.00 0.00 20 1003.2
20260904070038 78 188 1.0 7.0 0.00 0.00 0.00 19 1003.1
20260904065536 78 210 1.0 7.0 0.00 0.00 0.00 19 1003.2
20260904065035 79 209 1.0 6.0 0.00 0.00 0.00 18 1003.3
20260904064534 79 195 2.0 6.0 0.00 0.00 0.00 18 1003.3
20260904064034 79 195 2.0 6.0 0.00 0.00 0.00 17 1003.3
20260904063534 79 194 1.0 4.0 0.00 0.00 0.00 17 1003.2
20260904063033 79 189 1.0 5.0 0.00 0.00 0.00 17 1003.2
20260904062534 79 190 0.0 6.0 0.00 0.00 0.00 16 1003.2
20260904062034 78 213 2.0 9.0 0.00 0.00 0.00 16 1003.2
20260904061537 78 162 2.0 9.0 0.00 0.00 0.00 16 1003.2
20260904061033 78 178 1.0 6.0 0.00 0.00 0.00 16 1003.2
20260904060533 79 166 2.0 7.0 0.00 0.00 0.00 16 1003.2
20260904060033 79 161 2.0 8.0 0.00 0.00 0.00 16 1003.2
20260904055532 79 161 2.0 10.0 0.00 0.00 0.00 16 1003.1
20260904055032 79 167 5.0 10.0 0.00 0.00 0.00 16 1003.0
20260904054535 79 169 3.0 8.0 0.00 0.00 0.00 16 1003.2
20260904054033 79 184 4.0 8.0 0.00 0.00 0.00 16 1003.1
20260904053534 79 157 2.0 10.0 0.00 0.00 0.00 17 1003.2
20260904053033 79 181 1.0 9.0 0.00 0.00 0.00 16 1003.2
20260904052531 80 162 1.0 9.0 0.00 0.00 0.00 16 1003.2
20260904052031 80 144 2.0 7.0 0.00 0.00 0.00 16 1003.2
20260904051534 81 190 2.0 15.0 0.00 0.00 0.00 16 1003.2
20260904051030 81 172 6.0 15.0 0.00 0.00 0.00 15 1003.2
20260904050530 81 164 3.0 9.0 0.00 0.00 0.00 15 1003.3
20260904050029 82 173 3.0 9.0 0.00 0.00 0.00 15 1003.3
20260904045532 82 192 2.0 13.0 0.00 0.00 0.00 15 1003.3
20260904045032 82 181 7.0 13.0 0.00 0.00 0.00 15 1003.3
20260904044540 82 191 5.0 10.0 0.00 0.00 0.00 15 1003.3
20260904044030 82 171 4.0 10.0 0.00 0.00 0.00 15 1003.3
20260904043533 82 208 4.0 10.0 0.00 0.00 0.00 16 1003.3
20260904043028 82 213 5.0 11.0 0.00 0.00 0.00 16 1003.3
20260904042528 81 178 1.0 7.0 0.00 0.00 0.00 16 1003.3
20260904042027 82 214 1.0 7.0 0.00 0.00 0.00 16 1003.2
20260904041535 82 204 2.0 7.0 0.00 0.00 0.00 16 1003.2
20260904041027 82 189 2.0 7.0 0.00 0.00 0.00 16 1003.3
20260904040529 82 181 3.0 9.0 0.00 0.00 0.00 16 1003.4
20260904040028 82 196 2.0 9.0 0.00 0.00 0.00 16 1003.4
20260904035528 82 186 2.0 8.0 0.00 0.00 0.00 16 1003.3
20260904035027 82 194 4.0 8.0 0.00 0.00 0.00 16 1003.2
20260904034527 82 224 1.0 7.0 0.00 0.00 0.00 16 1003.2
20260904034027 82 192 2.0 10.0 0.00 0.00 0.00 16 1003.2
20260904033530 82 192 3.0 10.0 0.00 0.00 0.00 16 1003.1
20260904033027 82 178 1.0 7.0 0.00 0.00 0.00 16 1003.0
20260904032526 82 190 2.0 9.0 0.00 0.00 0.00 16 1003.0